N3LF Weather Reports


time (UTC)temp
C
wind
direction
speed
KPH
gust
KPH
rain 1hr
cm
rain 24hr
cm
rain mn
cm
humidity
%
barometer
mb
20260504110520 13 245 1.6 3.2 0.00 0.00 0.00 74 1015.6
20260504100442 12 233 0.0 1.6 0.00 0.00 0.00 79 1015.2
20260504081841 10 46 0.0 1.6 0.00 0.00 0.00 88 1015.6
20260504081337 9 23 1.6 1.6 0.00 0.00 0.00 89 1015.9
20260504080833 9 243 0.0 1.6 0.00 0.00 0.00 90 1015.6
20260504080331 9 242 0.0 0.0 0.00 0.00 0.00 90 1015.6
20260504070258 9 205 0.0 0.0 0.00 0.00 0.00 89 1016.1
20260504060218 9 219 0.0 0.0 0.00 0.00 0.00 86 1016.5
20260504050646 9 220 0.0 0.0 0.00 0.00 0.00 85 1017.0
20260504050143 10 229 0.0 0.0 0.00 0.00 0.00 85 1017.1
20260504045640 10 229 0.0 0.0 0.00 0.00 0.00 82 1017.4
20260504045140 10 233 0.0 0.0 0.00 0.00 0.00 83 1017.4
20260504044638 10 229 0.0 0.0 0.00 0.00 0.00 83 1017.4
20260504044135 10 230 0.0 0.0 0.00 0.00 0.00 82 1017.3
20260504043632 10 250 0.0 0.0 0.00 0.00 0.00 81 1017.6
20260504043129 10 254 0.0 0.0 0.00 0.00 0.00 82 1017.5
20260504042626 10 233 0.0 0.0 0.00 0.00 0.00 82 1017.4
20260504042123 10 314 0.0 0.0 0.00 0.00 0.00 81 1017.5
20260504041619 10 267 0.0 0.0 0.00 0.00 0.00 80 1017.4
20260504041115 10 229 0.0 3.2 0.00 0.00 0.00 80 1017.3
20260504040613 11 319 1.6 3.2 0.00 0.00 0.00 80 1017.1
20260504040109 11 28 3.2 3.2 0.00 0.00 0.00 76 1016.9
20260504035606 11 23 1.6 3.2 0.00 0.00 0.00 74 1017.0
20260504035102 12 27 1.6 3.2 0.00 0.00 0.00 70 1016.8
20260504034600 12 47 1.6 3.2 0.00 0.00 0.00 70 1016.9
20260504034057 12 216 0.0 1.6 0.00 0.00 0.00 71 1016.8
20260504033555 11 313 0.0 1.6 0.00 0.00 0.00 74 1016.8
20260504033052 11 201 0.0 1.6 0.00 0.00 0.00 76 1016.8
20260504032549 11 196 3.2 3.2 0.00 0.00 0.00 79 1016.9
20260504032046 10 200 3.2 3.2 0.00 0.00 0.00 78 1017.1
20260504031543 10 223 0.0 0.0 0.00 0.00 0.00 82 1017.3
20260504031038 10 244 0.0 0.0 0.00 0.00 0.00 84 1017.3
20260504030536 10 230 0.0 0.0 0.00 0.00 0.00 83 1017.5
20260504030032 10 230 0.0 0.0 0.00 0.00 0.00 82 1017.4
20260504025530 10 230 0.0 0.0 0.00 0.00 0.00 82 1017.5
20260504025026 11 230 0.0 0.0 0.00 0.00 0.00 80 1017.5
20260504024523 11 229 0.0 0.0 0.00 0.00 0.00 78 1017.6
20260504024020 11 223 0.0 0.0 0.00 0.00 0.00 78 1017.6
20260504023517 11 222 0.0 0.0 0.00 0.00 0.00 80 1017.7
20260504023013 11 223 0.0 0.0 0.00 0.00 0.00 78 1017.5
20260504022508 11 223 0.0 0.0 0.00 0.00 0.00 77 1017.4
20260504022005 11 223 0.0 0.0 0.00 0.00 0.00 74 1017.6
20260504021503 11 223 0.0 0.0 0.00 0.00 0.00 74 1017.7
20260504021000 12 223 0.0 0.0 0.00 0.00 0.00 73 1017.6
20260504020456 12 223 0.0 0.0 0.00 0.00 0.00 72 1017.5
20260504015953 12 223 0.0 0.0 0.00 0.00 0.00 73 1017.3
20260504015449 12 222 0.0 0.0 0.00 0.00 0.00 68 1017.6
20260504014945 12 229 0.0 0.0 0.00 0.00 0.00 69 1017.8
20260504014441 13 230 0.0 0.0 0.00 0.00 0.00 67 1017.8
20260504013938 13 230 0.0 0.0 0.00 0.00 0.00 65 1017.6
20260504013437 13 229 0.0 0.0 0.00 0.00 0.00 65 1017.5
20260504012932 13 229 0.0 0.0 0.00 0.00 0.00 62 1017.5
20260504012431 14 231 0.0 0.0 0.00 0.00 0.00 64 1017.3
20260504011928 14 230 0.0 0.0 0.00 0.00 0.00 61 1017.4
20260504011425 15 222 0.0 0.0 0.00 0.00 0.00 56 1017.2
20260504010920 15 227 0.0 0.0 0.00 0.00 0.00 56 1017.2
20260504010417 15 227 0.0 0.0 0.00 0.00 0.00 56 1017.1
20260504005913 15 230 0.0 0.0 0.00 0.00 0.00 58 1017.1
20260504005409 15 229 0.0 0.0 0.00 0.00 0.00 56 1017.1
20260504004908 15 227 0.0 0.0 0.00 0.00 0.00 57 1017.1
20260504004405 16 230 0.0 0.0 0.00 0.00 0.00 58 1017.0
20260504003901 16 223 0.0 0.0 0.00 0.00 0.00 54 1016.9
20260504003358 16 232 0.0 0.0 0.00 0.00 0.00 56 1017.1
20260504002855 16 219 0.0 0.0 0.00 0.00 0.00 52 1017.1
20260504002351 17 222 0.0 0.0 0.00 0.00 0.00 51 1017.2
20260504001849 17 222 0.0 1.6 0.00 0.00 0.00 49 1017.3
20260504001346 17 196 1.6 3.2 0.00 0.00 0.00 46 1017.5
20260504000843 18 222 1.6 3.2 0.00 0.00 0.00 44 1017.7
20260504000340 18 228 3.2 3.2 0.00 0.00 0.00 43 1017.4
20260503235838 18 200 3.2 3.2 0.00 0.00 0.00 43 1017.3
20260503235335 18 226 1.6 3.2 0.00 0.00 0.00 42 1017.4
20260503234832 19 210 1.6 3.2 0.00 0.00 0.00 41 1017.4
20260503234330 19 211 3.2 6.4 0.00 0.00 0.00 42 1017.5
20260503233828 20 226 4.8 4.8 0.00 0.00 0.00 39 1017.5
20260503233323 20 222 1.6 3.2 0.00 0.00 0.00 40 1017.7
20260503232820 20 226 3.2 9.7 0.00 0.00 0.00 39 1017.5
20260503232318 20 205 0.0 4.8 0.00 0.00 0.00 39 1017.6
20260503231815 20 236 3.2 3.2 0.00 0.00 0.00 42 1017.7
20260503231312 20 216 1.6 3.2 0.00 0.00 0.00 39 1018.0
20260503230808 20 243 1.6 6.4 0.00 0.00 0.00 40 1017.8
20260503230305 20 200 4.8 6.4 0.00 0.00 0.00 38 1018.2
20260503225803 20 228 3.2 9.7 0.00 0.00 0.00 38 1018.3
20260503225258 20 217 1.6 4.8 0.00 0.00 0.00 38 1018.3
20260503224755 20 229 4.8 9.7 0.00 0.00 0.00 40 1018.6
20260503224252 20 241 3.2 9.7 0.00 0.00 0.00 39 1018.4
20260503223750 21 206 1.6 4.8 0.00 0.00 0.00 39 1018.4
20260503223248 20 238 4.8 9.7 0.00 0.00 0.00 39 1018.4
20260503222743 20 171 4.8 14.5 0.00 0.00 0.00 40 1018.5
20260503222241 21 190 4.8 6.4 0.00 0.00 0.00 38 1018.5
20260503221740 21 226 1.6 3.2 0.00 0.00 0.00 39 1018.7
20260503221237 21 206 1.6 3.2 0.00 0.00 0.00 40 1018.7
20260503220733 20 216 1.6 11.3 0.00 0.00 0.00 39 1018.8
20260503220231 21 214 6.4 6.4 0.00 0.00 0.00 37 1018.9
20260503215727 21 281 8.0 22.5 0.00 0.00 0.00 37 1018.8
20260503215224 21 291 0.0 1.6 0.00 0.00 0.00 38 1018.9
20260503214723 21 221 3.2 4.8 0.00 0.00 0.00 40 1019.0
20260503214219 21 223 3.2 6.4 0.00 0.00 0.00 39 1019.2
20260503213717 21 283 11.3 12.9 0.00 0.00 0.00 37 1019.1
20260503213214 21 260 1.6 3.2 0.00 0.00 0.00 38 1019.3
20260503212711 20 225 1.6 4.8 0.00 0.00 0.00 37 1019.4
20260503212208 20 161 3.2 6.4 0.00 0.00 0.00 39 1019.4
20260503211706 20 158 3.2 12.9 0.00 0.00 0.00 39 1019.5
20260503211201 20 194 6.4 9.7 0.00 0.00 0.00 37 1019.5
20260503210658 20 188 4.8 14.5 0.00 0.00 0.00 36 1019.7
20260503210155 20 228 3.2 14.5 0.00 0.00 0.00 36 1019.7
20260503205650 21 83 4.8 6.4 0.00 0.00 0.00 35 1019.8
20260503205146 21 244 1.6 6.4 0.00 0.00 0.00 36 1020.0
20260503204643 20 235 4.8 12.9 0.00 0.00 0.00 37 1020.2
20260503204141 21 140 3.2 4.8 0.00 0.00 0.00 36 1020.1
20260503203638 20 240 1.6 4.8 0.00 0.00 0.00 37 1020.2
20260503203136 20 200 4.8 12.9 0.00 0.00 0.00 38 1020.5
20260503202632 20 204 6.4 11.3 0.00 0.00 0.00 35 1020.4
20260503202131 20 347 3.2 4.8 0.00 0.00 0.00 35 1020.3
20260503201628 21 185 3.2 9.7 0.00 0.00 0.00 36 1020.6
20260503201125 20 269 3.2 11.3 0.00 0.00 0.00 37 1020.7
20260503200621 20 295 8.0 14.5 0.00 0.00 0.00 38 1020.9
20260503200118 20 218 6.4 16.1 0.00 0.00 0.00 37 1020.8
20260503195615 21 300 4.8 6.4 0.00 0.00 0.00 36 1020.9
20260503195112 21 254 6.4 14.5 0.00 0.00 0.00 34 1020.9
20260503194609 20 190 1.6 3.2 0.00 0.00 0.00 36 1021.2
20260503194104 20 248 3.2 6.4 0.00 0.00 0.00 39 1021.4
20260503193601 20 195 3.2 16.1 0.00 0.00 0.00 37 1021.5
20260503193056 20 198 3.2 9.7 0.00 0.00 0.00 38 1021.7
20260503192552 19 256 4.8 6.4 0.00 0.00 0.00 38 1021.6
20260503192048 19 217 1.6 3.2 0.00 0.00 0.00 38 1021.7
20260503191545 20 268 9.7 12.9 0.00 0.00 0.00 38 1021.8
20260503191042 20 123 6.4 12.9 0.00 0.00 0.00 38 1021.9
20260503190539 20 293 6.4 12.9 0.00 0.00 0.00 38 1022.1
20260503190037 19 277 0.0 4.8 0.00 0.00 0.00 38 1022.0
20260503185533 18 256 4.8 9.7 0.00 0.00 0.00 38 1022.2
20260503185032 18 40 8.0 14.5 0.00 0.00 0.00 39 1022.1
20260503184529 20 246 3.2 3.2 0.00 0.00 0.00 42 1022.1
20260503184026 18 242 3.2 9.7 0.00 0.00 0.00 39 1022.1
20260503183522 20 351 8.0 17.7 0.00 0.00 0.00 37 1022.2
20260503183019 20 218 6.4 11.3 0.00 0.00 0.00 40 1022.1
20260503182518 18 198 1.6 3.2 0.00 0.00 0.00 38 1022.4
20260503182015 18 354 11.3 16.1 0.00 0.00 0.00 39 1022.2
20260503181512 18 213 8.0 25.7 0.00 0.00 0.00 38 1022.4
20260503181008 18 152 3.2 11.3 0.00 0.00 0.00 40 1022.7
20260503180506 18 211 4.8 4.8 0.00 0.00 0.00 40 1022.6
20260503180003 18 250 4.8 9.7 0.00 0.00 0.00 39 1022.5
20260503175501 19 321 4.8 6.4 0.00 0.00 0.00 41 1022.7
20260503174956 18 52 6.4 11.3 0.00 0.00 0.00 39 1022.9
20260503174455 18 229 4.8 14.5 0.00 0.00 0.00 42 1023.0
20260503173950 18 142 4.8 6.4 0.00 0.00 0.00 39 1023.0
20260503173446 19 8 0.0 4.8 0.00 0.00 0.00 39 1023.0
20260503172943 18 169 6.4 6.4 0.00 0.00 0.00 38 1023.1
20260503172440 18 233 3.2 6.4 0.00 0.00 0.00 38 1023.4
20260503171937 18 165 1.6 4.8 0.00 0.00 0.00 40 1023.5
20260503171433 18 316 1.6 4.8 0.00 0.00 0.00 41 1023.5
20260503170931 17 344 3.2 4.8 0.00 0.00 0.00 40 1023.5
20260503170427 17 193 4.8 4.8 0.00 0.00 0.00 39 1023.6
20260503150819 16 27 3.2 3.2 0.00 0.00 0.00 51 1024.4
20260503150315 16 106 3.2 4.8 0.00 0.00 0.00 52 1024.5
20260503140240 9 185 0.0 1.6 0.00 0.00 0.00 99 1024.5
20260503131209 7 40 0.0 0.0 0.00 0.00 0.00 99 1024.7
20260503130707 7 40 0.0 0.0 0.00 0.00 0.00 99 1024.5
20260503130204 7 40 0.0 0.0 0.00 0.00 0.00 99 1024.5
20260503120130 3 230 0.0 0.0 0.00 0.00 0.00 99 1024.4